Location: Cilcennin
(52.2167°N, 4.1667°W)
Time: 10:17:29
(UTC+00:00)

Daily predictions for brighter satellites

Satellite Brightness Start Highest point End
(mag) Time Altitude Azimuth Time Altitude Azimuth Time Altitude Azimuth
Cosmos 2228 Rocket 4.2 16:34:24 10° SSW 16:38:50 47° WNW 16:43:18 10° N
Cosmos 1908 Rocket 4.5 16:36:26 10° N 16:40:13 27° ENE 16:43:57 10° SE
Cosmos 1743 4.5 16:41:45 10° NNE 16:43:45 14° ENE 16:45:44 10° E
Cosmos 2279 Rocket 4.1 16:38:28 10° N 16:44:47 89° W 16:51:03 10° S
Lacrosse 5 rocket 1.6 16:41:39 10° SW 16:45:55 65° SE 16:49:58 10° ENE
SL-16 R/B 3.8 16:43:34 10° SE 16:47:03 17° E 16:50:31 10° ENE
H-2A R/B 3.7 16:46:25 10° N 16:49:59 29° WNW 16:53:32 10° WSW
Cosmos 2344 4.4 16:42:05 10° WNW 16:50:04 45° NNE 17:00:31 10° E
SL-4 R/B 1.9 16:47:15 10° WSW 16:50:54 74° S 16:54:52 10° E
Cosmos 1340 4.5 16:47:36 10° NNW 16:51:05 35° W 16:54:34 10° SSW
Cosmos 1689 Rocket 2.2 16:49:14 10° NNE 16:52:15 56° ESE 16:55:13 10° S
Okean-O 3.6 16:48:44 10° ESE 16:52:20 25° ENE 16:55:59 10° N
Cosmos 2237 Rocket 2.7 16:49:24 10° S 16:54:45 44° ESE 17:00:07 10° NE
Meteor 2-6 Rocket 4.1 16:49:28 10° S 16:54:51 77° E 17:00:21 10° NNE
BREEZE-M R/B 3.7 16:48:19 10° W 16:55:37 67° S 16:59:14 10° E
SL-16 R/B 4.2 16:52:19 10° N 16:57:19 27° NW 17:02:19 10° WSW
YAOGAN 1 4.3 16:55:22 10° E 16:57:29 13° NE 16:59:35 10° NNE
Cosmos 2322 Rocket 3.8 16:53:45 10° W 16:58:26 26° NW 17:03:10 10° NNE
USA 215 3.8 16:52:16 10° ENE 16:58:31 45° SE 17:04:44 10° SSW
Cosmos 1812 3.0 16:55:50 10° S 16:59:34 48° E 17:03:18 10° NNE
Cosmos 2333 Rocket 2.4 16:54:52 10° SW 17:00:38 80° WNW 17:06:28 10° NNE
Cosmos 1733 Rocket 3.1 16:56:42 10° N 17:01:07 89° E 17:05:32 10° S
Cosmos 1500 3.1 16:57:28 10° N 17:01:15 82° ENE 17:04:59 10° SSE
Aureole 1 Rocket 4.0 16:59:30 10° SE 17:01:38 17° E 17:03:35 12° ENE
Cosmos 1782 4.0 16:58:45 10° SSW 17:02:33 43° WNW 17:06:23 10° N
Cosmos 2219 Rocket 2.4 16:57:02 10° SW 17:02:40 78° WNW 17:08:23 10° NNE
Cosmos 1943 Rocket 3.0 16:58:19 10° NNW 17:03:11 28° NE 17:08:01 10° E
SJ-7 4.4 16:59:32 10° SSE 17:03:42 81° ENE 17:07:50 10° NNW
Nadezhda 4 Rocket 4.2 17:02:00 10° SSE 17:08:08 56° E 17:14:17 10° NNE
SL-16 R/B 4.0 17:04:48 10° W 17:09:09 22° NW 17:13:32 10° NNE
Cosmos 921 Rocket 3.3 17:05:38 10° N 17:09:43 42° ENE 17:13:51 10° SE
Radarsat Rocket 4.2 17:03:50 10° SSE 17:09:49 74° WSW 17:15:40 10° NNW
CZ-4 R/B 2.6 17:12:19 10° ESE 17:15:00 18° ENE 17:17:42 10° NNE
Cosmos 1315 Rocket 4.1 17:12:01 10° SW 17:15:50 40° WNW 17:19:43 10° N
CZ-4B R/B 2.7 17:15:07 10° N 17:18:27 41° WNW 17:21:43 10° SW
AQUARIUS 4.1 17:18:02 10° SSE 17:22:29 66° ENE 17:26:58 10° N
NOSS 0 Rocket 4.0 17:18:09 10° SSW 17:24:22 81° ESE 17:30:39 10° NE
Lacrosse 4 Rocket 3.4 17:23:41 10° N 17:25:30 12° NNE 17:26:19 12° NNE
Cosmos 1980 3.7 17:20:51 10° SSW 17:26:29 75° ESE 17:32:01 11° NNE
BREEZE-M DEB (TANK) 3.8 17:21:37 10° WSW 17:26:58 36° S 17:29:49 10° ESE
Cosmos 1441 Rocket 3.3 17:24:51 10° N 17:28:36 52° ENE 17:32:17 10° SSE
Cosmos 2026 Rocket 4.4 17:24:07 10° SSE 17:29:38 38° E 17:35:11 10° NNE
Cosmos 1975 3.8 17:26:31 10° NNE 17:29:51 24° ENE 17:33:10 10° SE
NOSS 3-1 (C) 4.2 17:23:27 10° NW 17:30:11 49° NNE 17:38:01 10° ESE
SMAP 3.0 17:28:01 10° SSE 17:32:40 88° E 17:37:23 10° NNW
H-2A R/B 2.5 17:29:05 10° SSE 17:32:46 81° ENE 17:36:29 10° NNW
Cosmos 2251 Rocket 3.6 17:27:59 10° SSW 17:33:18 83° WNW 17:38:37 10° NNE
Envisat 3.1 17:28:55 10° SE 17:33:51 53° ENE 17:38:48 10° N
Cosmos 2297 3.7 17:28:17 10° NNW 17:34:02 84° ENE 17:39:43 10° SSE
USA 267 3.6 17:28:34 10° SE 17:35:05 69° SW 17:41:38 10° WNW
Cosmos 1782 Rocket 3.7 17:31:15 10° N 17:35:30 50° ENE 17:39:43 10° SSE
STARLINK-67 2.4 17:35:51 10° W 17:38:37 80° N 17:39:48 30° E
Genesis I 4.3 17:35:57 10° NW 17:39:44 47° SW 17:43:25 10° SSE
USA 229 DEB 4.0 17:33:46 10° NW 17:40:41 52° NNE 17:47:14 13° ESE
USA 229 4.0 17:33:52 10° NW 17:40:46 52° NNE 17:47:15 13° ESE
PSLV R/B 3.9 17:36:36 10° NNE 17:40:47 86° ESE 17:44:54 10° SSW
Cosmos 407 Rocket 4.1 17:37:40 10° S 17:42:24 37° ESE 17:45:31 19° NE
Exosat Rocket 3.6 17:37:36 10° SSW 17:42:42 81° WNW 17:47:39 11° NNE
Meteor 1-27 Rocket 3.9 17:38:55 10° SSW 17:44:44 81° WNW 17:50:41 10° NNE
Cosmos 1666 2.7 17:41:29 10° NNW 17:45:15 77° W 17:48:58 10° S
NOSS 3-4 (A) 4.2 17:39:48 10° W 17:45:42 45° NNW 17:50:44 16° NE
NOSS 3-4 (C) 4.2 17:39:54 10° W 17:45:48 45° NNW 17:50:50 16° NE
NOSS 3-1 (A) 4.3 17:39:16 10° NW 17:45:54 45° NNE 17:51:32 18° E
Cosmos 1862 Rocket 4.0 17:42:04 10° SSW 17:46:24 63° WNW 17:50:49 10° N
Okean 2 Rocket 3.7 17:43:06 10° N 17:47:11 33° ENE 17:51:16 10° SE
NOAA 12 4.0 17:42:16 10° SSE 17:47:33 79° ENE 17:52:51 10° NNW
STARLINK-46 2.4 17:46:46 10° W 17:49:26 72° N 17:49:59 49° ENE
Cosmos 1703 Rocket 3.6 17:45:38 10° S 17:50:01 58° E 17:54:16 11° NNE
Sich 1 Rocket 3.6 17:46:36 10° N 17:50:57 54° ENE 17:55:15 10° SSE
COSMOS 2428 3.8 17:48:25 10° WSW 17:53:47 41° NW 17:59:05 11° NNE
FALCON 9 DEB 3.5 17:55:32 10° SW 17:58:57 52° SSE 17:59:57 37° ESE
Meteor 2-9 Rocket 4.4 17:55:29 10° N 18:01:13 50° ENE 18:06:50 10° SE
Cosmos 1627 Rocket 4.4 17:58:49 10° S 18:04:53 70° E 18:11:02 10° NNE
Okean O Rocket 4.4 18:02:00 10° SW 18:05:12 20° W 18:08:24 10° NW
RESURS DK-1 4.2 18:02:14 10° W 18:05:44 26° NW 18:08:39 13° N
YAOGAN 6 2.4 18:03:28 10° SSE 18:07:00 67° ENE 18:10:37 10° N
Cosmos 2195 Rocket 4.4 18:00:55 10° S 18:07:08 79° E 18:13:29 10° NNE
NOAA 11 4.4 18:03:51 10° SE 18:08:59 44° ENE 18:14:11 10° N
SeaSat 1 3.7 18:12:56 23° NNE 18:12:56 23° NNE 18:16:22 10° NNW
Cosmos 2242 Rocket 4.4 18:09:07 10° SSW 18:13:36 55° WNW 18:18:08 10° N
Meteor 1-18 Rocket 4.2 18:08:36 10° S 18:14:09 57° E 18:18:30 16° NNE
Cosmos 2360 Rocket 4.2 18:10:39 10° WNW 18:14:33 19° NNW 18:18:29 10° NNE
Cosmos 1867 3.9 18:10:24 10° NW 18:15:51 68° SW 18:21:15 10° SSE
Ariane Rocket 3.8 18:18:02 30° NE 18:18:02 30° NE 18:21:36 10° N
CZ-4 R/B 4.3 18:13:00 10° SSE 18:17:10 76° ENE 18:21:21 10° NNW
Cosmos 1655 Rocket 4.2 18:12:55 10° SSE 18:18:50 45° E 18:23:34 16° NNE
Cosmos 1092 Rocket 4.1 18:12:47 10° SSW 18:19:05 76° W 18:25:22 10° N
Cosmos 1743 2.9 18:16:10 10° NNW 18:20:03 74° W 18:23:56 10° S
Cosmos 2369 Rocket 2.1 18:15:49 10° NNW 18:21:27 65° NE 18:25:39 18° SE
Cosmos 1980 Rocket 4.3 18:21:36 10° NNW 18:23:26 11° N 18:24:45 11° NNE
Okean 1-7 3.1 18:19:39 10° SSW 18:24:00 79° W 18:27:20 17° N
ATLAS 2AS CENTAUR R/B 3.9 18:16:49 10° W 18:24:16 39° NNW 18:28:36 23° NE
Lacrosse 5 rocket 1.7 18:21:09 10° W 18:25:15 49° NNW 18:25:54 44° NNE
COSMO-SKYMED 1 2.5 18:24:20 45° NE 18:25:27 62° ESE 18:29:46 10° S
Cosmos 1656 Rocket 4.1 18:20:51 10° NNW 18:25:56 38° NE 18:26:10 38° NE
Cosmos 1763 Rocket 4.1 18:21:30 10° NNW 18:25:33 34° NE 18:25:33 34° NE
Cosmos 1300 Rocket 3.6 18:24:01 10° N 18:34:41 - SSE 18:27:54 54° NE
Okean-O 3.6 18:24:18 10° S 18:28:35 49° W 18:32:55 10° NNW
STARLINK-60 3.1 18:26:02 10° WSW 18:29:13 76° SW 18:29:13 76° SW
STARLINK-52 3.3 18:26:04 10° WSW 18:29:24 63° S 18:29:24 63° S
SL-16 R/B 2.1 18:24:36 10° SSW 18:30:18 83° ESE 18:33:05 32° NE
SL-4 R/B 1.9 18:26:40 10° W 18:30:30 77° S 18:30:59 65° SE
Lacrosse 5 3.6 18:27:33 10° S 18:29:45 17° SE 18:29:45 17° SE
YAOGAN 1 2.4 18:28:33 10° SSE 18:32:53 80° ENE 18:37:14 10° NNW
FengYun 1-2 T 4.4 18:28:02 10° S 18:33:32 73° WSW 18:39:05 10° NNW
Okean 1 3.3 18:31:54 10° SSW 18:35:53 82° WNW 18:36:52 49° N
STARLINK-29 3.5 18:34:09 10° WSW 18:37:15 63° SW 18:37:15 63° SW
Cosmos 1190 Rocket 3.8 18:33:35 10° SSW 18:38:47 85° ESE 18:40:40 41° NNE
Cosmos 2237 Rocket 3.2 18:33:26 10° WSW 18:38:52 43° NW 18:42:36 19° NNE
Cosmos 676 Rocket 3.9 18:36:17 10° S 18:41:21 58° ESE 18:41:40 57° E
USA 215 3.2 18:39:08 38° ENE 18:41:54 83° NNW 18:48:28 10° WSW
Cosmos 2322 Rocket 4.4 18:42:21 10° NW 18:44:38 12° NNW 18:46:39 11° N
Aureole 1 Rocket 3.9 18:42:53 10° WSW 18:45:45 32° NW 18:46:15 31° NW
Cosmos 2333 Rocket 4.1 18:41:14 10° W 18:45:51 24° NW 18:49:26 14° N
Cosmos 1943 Rocket 2.3 18:41:52 10° NNW 18:47:33 76° WSW 18:52:55 11° SSE
Cosmos 2219 Rocket 4.1 18:43:09 10° W 18:47:34 23° NW 18:51:01 14° N
Cosmos 614 Rocket 4.1 18:43:02 10° SSW 18:48:07 71° WNW 18:50:06 37° NNE
Cosmos 1954 Rocket 3.9 18:43:03 10° S 18:48:09 62° ESE 18:48:10 62° ESE
S3M 3.9 18:43:19 10° N 18:49:35 89° W 18:55:44 10° S
CZ-4 R/B 1.9 18:45:55 10° S 18:49:43 54° W 18:53:31 10° NNW
SL-16 R/B 4.4 18:53:37 10° NNW 18:55:36 12° N 18:56:55 11° N
Meteor 2-4 Rocket 3.7 18:51:20 10° S 18:57:05 63° E 18:57:05 63° E
Cosmos 2151 Rocket 4.1 18:54:08 10° NNW 18:57:25 49° NNW 18:57:25 49° NNW
Cosmos 1174 4.3 18:54:12 10° SW 18:58:33 58° WNW 18:58:33 58° WNW
Cosmos 2266 Rocket 4.0 18:52:48 10° S 18:59:03 59° E 18:59:29 58° ENE
Cosmos 1553 Rocket 4.5 18:54:27 10° NNW 19:00:44 62° W 19:07:02 10° S
CSL-04 Rocket 4.0 18:57:36 10° S 19:02:50 63° WSW 19:08:08 10° NNW
CZ-4C R/B 3.7 18:59:31 10° S 19:01:22 21° SSE 19:01:22 21° SSE
Lacrosse 4 Rocket 3.6 19:01:29 10° NNW 19:02:38 17° NNW 19:02:38 17° NNW
Meteor 1-19 Rocket 4.1 19:00:03 10° SSW 19:05:32 80° WNW 19:07:28 42° N
Cosmos 2344 4.2 18:56:50 10° NW 19:06:01 84° NE 19:13:45 27° SE
Cosmos 1975 4.3 19:02:44 10° NNW 19:06:26 37° W 19:10:08 10° SSW
Cosmos 1140 Rocket 3.7 19:07:17 10° SW 19:12:23 67° WNW 19:13:01 61° NNW
SKYMED 2 4.4 19:13:00 45° NW 19:13:33 48° WNW 19:17:43 10° SW
Cosmos 468 Rocket 4.2 19:14:05 10° NNW 19:18:29 64° NW 19:18:29 64° NW
NOSS 3-1 (C) 4.1 19:14:19 10° NW 19:21:38 74° SW 19:25:29 35° SSE
USA 229 DEB 4.1 19:24:51 10° NW 19:31:58 64° SW 19:34:44 40° S
USA 229 4.1 19:24:57 10° NW 19:32:03 64° SW 19:34:46 40° S
Cosmos 2315 Rocket 4.0 19:28:02 10° N 19:34:03 80° NNW 19:34:03 80° NNW
NOSS 3-1 (A) 4.0 19:30:13 10° NW 19:37:33 82° SW 19:39:01 63° SSE
SeaSat 1 4.4 19:52:42 23° NNW 19:52:42 23° NNW 19:54:30 10° NNW
Lacrosse 5 rocket 4.3 20:01:03 10° WNW 20:01:33 13° WNW 20:01:33 13° WNW
Cosmos 2369 Rocket 4.0 20:00:26 10° NW 20:05:03 27° WSW 20:07:35 19° SW
Lacrosse 5 4.4 20:08:13 10° SW 20:09:00 14° SW 20:09:00 14° SW
SL-16 R/B 3.9 20:10:19 10° W 20:14:59 27° NW 20:14:59 27° NW
ATLAS 2AS CENTAUR R/B 3.9 20:09:52 10° NW 20:16:01 36° N 20:16:01 36° N
USA 215 4.1 20:26:28 45° NW 20:26:28 45° NW 20:31:07 10° W
